Tracking 29892 objects as of 21-Nov-2024
HD Live streaming from Space Station
objects crossing your sky now

SL-12 R/B(2)

Track SL-12 R/B(2) now!


NORAD ID: 22061
Int'l Code: 1992-047F
Perigee: 19,110.1 km
Apogee: 19,127.3 km
Inclination: 64.5 °
Period: 675.0 minutes
Semi major axis: 25489 km
RCS: 2.4621 m2 (large)
Launch date: July 30, 1992
Source: Commonwealth of Independent States (former USSR) (CIS)
Launch site: TYURATAM MISSILE AND SPACE COMPLEX (TTMTR)

Note: This is a ROCKET BODY
Your satellite tracking list
Your tracking list is empty




NASA's NSSDC Master Catalog

Two Line Element Set (TLE):
1 22061U 92047F   24323.19215164 -.00000049  00000-0  00000-0 0  9990
2 22061  64.4956 321.4353 0003367 278.9358 150.1318  2.13332271251617
Source of the keplerian elements: AFSPC